FW6908 Weather Reports


time (UTC)temp
C
wind
direction
speed
KPH
gust
KPH
rain 1hr
cm
rain 24hr
cm
rain mn
cm
humidity
%
barometer
mb
20260506183548 20 322 0.0 4.8 0.00 0.00 0.00 45 1017.8
20260506183051 20 337 0.0 4.8 0.00 0.00 0.00 45 1017.7
20260506182548 20 342 3.2 4.8 0.00 0.00 0.00 45 1017.6
20260506182048 20 335 1.6 6.4 0.00 0.00 0.00 46 1017.5
20260506181600 20 336 1.6 6.4 0.00 0.00 0.00 46 1017.5
20260506181046 20 334 1.6 6.4 0.00 0.00 0.00 46 1017.5
20260506180550 20 323 3.2 6.4 0.00 0.00 0.00 46 1017.5
20260506180048 20 336 3.2 6.4 0.00 0.00 0.00 46 1017.5
20260506175546 20 346 3.2 8.0 0.00 0.00 0.00 46 1017.5
20260506175046 20 346 3.2 8.0 0.00 0.00 0.00 46 1017.5
20260506174644 20 323 4.8 11.3 0.00 0.00 0.00 46 1017.5
20260506174044 20 317 3.2 8.0 0.00 0.00 0.00 46 1017.4
20260506173544 20 280 3.2 8.0 0.00 0.00 0.00 46 1017.3
20260506173111 20 280 4.8 12.9 0.00 0.00 0.00 46 1017.3
20260506172543 21 262 6.4 12.9 0.00 0.00 0.00 46 1017.3
20260506172043 21 288 3.2 9.7 0.00 0.00 0.00 46 1017.4
20260506171545 21 273 6.4 9.7 0.00 0.00 0.00 45 1017.4
20260506171043 21 298 4.8 14.5 0.00 0.00 0.00 45 1017.3
20260506170543 21 271 9.7 14.5 0.00 0.00 0.00 44 1017.3
20260506165543 21 282 6.4 12.9 0.00 0.00 0.00 44 1017.3
20260506165043 21 259 6.4 14.5 0.00 0.00 0.00 44 1017.2
20260506164542 21 274 8.0 14.5 0.00 0.00 0.00 43 1017.2
20260506164043 21 246 4.8 16.1 0.00 0.00 0.00 43 1017.3
20260506163543 21 273 11.3 16.1 0.00 0.00 0.00 42 1017.3
20260506163052 21 251 9.7 17.7 0.00 0.00 0.00 42 1017.3
20260506162543 21 257 11.3 17.7 0.00 0.00 0.00 42 1017.2
20260506162045 22 261 11.3 20.9 0.00 0.00 0.00 41 1017.2
20260506161542 22 285 14.5 20.9 0.00 0.00 0.00 41 1017.1
20260506161140 22 281 11.3 17.7 0.00 0.00 0.00 40 1017.1
20260506160540 22 305 12.9 19.3 0.00 0.00 0.00 40 1017.2
20260506160042 22 288 11.3 19.3 0.00 0.00 0.00 40 1017.2
20260506155539 22 259 8.0 17.7 0.00 0.00 0.00 40 1017.1
20260506155036 22 267 12.9 17.7 0.00 0.00 0.00 40 1017.1
20260506154538 22 253 11.3 19.3 0.00 0.00 0.00 40 1017.1
20260506154034 22 288 12.9 20.9 0.00 0.00 0.00 39 1017.3
20260506153531 22 279 11.3 20.9 0.00 0.00 0.00 39 1017.4
20260506153030 22 256 11.3 22.5 0.00 0.00 0.00 39 1017.3
20260506152529 22 281 16.1 22.5 0.00 0.00 0.00 39 1017.4
20260506152029 22 260 16.1 24.1 0.00 0.00 0.00 40 1017.4
20260506151528 22 271 17.7 25.7 0.00 0.00 0.00 39 1017.4
20260506151029 22 267 17.7 24.1 0.00 0.00 0.00 39 1017.3
20260506150527 22 293 12.9 24.1 0.00 0.00 0.00 41 1017.3
20260506150026 22 259 14.5 25.7 0.00 0.00 0.00 40 1017.3
20260506145530 22 303 19.3 25.7 0.00 0.00 0.00 40 1017.3
20260506145026 22 264 11.3 27.4 0.00 0.00 0.00 40 1017.3
20260506144524 22 252 16.1 27.4 0.00 0.00 0.00 41 1017.3
20260506144026 22 265 14.5 22.5 0.00 0.00 0.00 41 1017.3
20260506143523 22 279 17.7 22.5 0.00 0.00 0.00 41 1017.3
20260506143026 22 286 17.7 24.1 0.00 0.00 0.00 42 1017.3
20260506142521 23 222 14.5 24.1 0.00 0.00 0.00 41 1017.3
20260506142021 22 236 12.9 24.1 0.00 0.00 0.00 42 1017.3
20260506141521 22 249 16.1 25.7 0.00 0.00 0.00 42 1017.3
20260506141020 22 271 17.7 25.7 0.00 0.00 0.00 43 1017.3
20260506140520 23 240 14.5 24.1 0.00 0.00 0.00 42 1017.4
20260506140021 22 222 14.5 24.1 0.00 0.00 0.00 43 1017.3
20260506135518 22 240 16.1 24.1 0.00 0.00 0.00 43 1017.3
20260506135017 22 239 16.1 30.6 0.00 0.00 0.00 44 1017.3
20260506134517 22 247 16.1 30.6 0.00 0.00 0.00 44 1017.3
20260506134015 23 250 12.9 24.1 0.00 0.00 0.00 43 1017.3
20260506133518 23 245 16.1 25.7 0.00 0.00 0.00 44 1017.3
20260506133015 23 301 16.1 27.4 0.00 0.00 0.00 44 1017.2
20260506132513 23 263 17.7 27.4 0.00 0.00 0.00 44 1017.3
20260506132017 23 251 12.9 22.5 0.00 0.00 0.00 41 1017.2
20260506131514 23 253 16.1 22.5 0.00 0.00 0.00 39 1017.2
20260506131015 23 228 14.5 27.4 0.00 0.00 0.00 38 1017.2
20260506130513 23 259 19.3 27.4 0.00 0.00 0.00 39 1017.3
20260506130012 23 256 12.9 19.3 0.00 0.00 0.00 40 1017.3
20260506125509 23 267 11.3 19.3 0.00 0.00 0.00 41 1017.2
20260506125009 23 271 12.9 22.5 0.00 0.00 0.00 40 1017.4
20260506124508 23 213 14.5 22.5 0.00 0.00 0.00 39 1017.5
20260506124007 23 268 17.7 24.1 0.00 0.00 0.00 41 1017.5
20260506123508 23 239 14.5 25.7 0.00 0.00 0.00 42 1017.5
20260506123007 23 254 17.7 25.7 0.00 0.00 0.00 42 1017.6
20260506122506 23 270 14.5 24.1 0.00 0.00 0.00 42 1017.5
20260506122006 23 242 14.5 24.1 0.00 0.00 0.00 41 1017.4
20260506121506 23 256 11.3 24.1 0.00 0.00 0.00 41 1017.5
20260506121004 23 233 17.7 24.1 0.00 0.00 0.00 40 1017.5
20260506120506 23 262 16.1 25.7 0.00 0.00 0.00 39 1017.6
20260506120003 23 267 17.7 27.4 0.00 0.00 0.00 40 1017.6
20260506115504 23 249 19.3 27.4 0.00 0.00 0.00 40 1017.6
20260506115002 23 245 12.9 25.7 0.00 0.00 0.00 42 1017.6
20260506114501 23 238 19.3 25.7 0.00 0.00 0.00 41 1017.6
20260506114100 23 259 16.1 24.1 0.00 0.00 0.00 42 1017.6
20260506114001 23 295 16.1 24.1 0.00 0.00 0.00 41 1017.6
20260506113601 23 225 14.5 24.1 0.00 0.00 0.00 41 1017.7
20260506113100 23 215 12.9 25.7 0.00 0.00 0.00 42 1017.6
20260506112602 24 229 12.9 22.5 0.00 0.00 0.00 41 1017.6
20260506112102 23 244 16.1 20.9 0.00 0.00 0.00 40 1017.6
20260506111559 23 206 9.7 20.9 0.00 0.00 0.00 41 1017.6
20260506111059 24 240 11.3 24.1 0.00 0.00 0.00 41 1017.6
20260506110559 24 236 17.7 24.1 0.00 0.00 0.00 41 1017.7
20260506110059 24 226 12.9 22.5 0.00 0.00 0.00 41 1017.5
20260506105558 24 247 16.1 22.5 0.00 0.00 0.00 41 1017.6
20260506105058 25 219 9.7 22.5 0.00 0.00 0.00 39 1017.5
20260506104628 24 250 8.0 22.5 0.00 0.00 0.00 40 1017.5
20260506104056 24 259 4.8 22.5 0.00 0.00 0.00 41 1017.6
20260506103555 24 246 12.9 22.5 0.00 0.00 0.00 41 1017.5
20260506103055 24 226 9.7 19.3 0.00 0.00 0.00 41 1017.6
20260506102554 24 195 11.3 19.3 0.00 0.00 0.00 41 1017.6
20260506102054 24 172 12.9 17.7 0.00 0.00 0.00 43 1017.6
20260506101553 24 230 14.5 19.3 0.00 0.00 0.00 44 1017.6
20260506101052 23 204 8.0 16.1 0.00 0.00 0.00 44 1017.6
20260506100552 23 198 9.7 19.3 0.00 0.00 0.00 43 1017.7
20260506100051 23 265 11.3 17.7 0.00 0.00 0.00 43 1017.7
20260506095554 24 202 4.8 17.7 0.00 0.00 0.00 43 1017.7
20260506095050 23 260 8.0 17.7 0.00 0.00 0.00 43 1017.8
20260506094548 23 240 9.7 14.5 0.00 0.00 0.00 44 1017.8
20260506094147 23 238 9.7 14.5 0.00 0.00 0.00 43 1017.8
20260506093547 23 254 9.7 16.1 0.00 0.00 0.00 44 1017.9
20260506093046 23 183 11.3 16.1 0.00 0.00 0.00 43 1018.0
20260506092545 23 202 9.7 16.1 0.00 0.00 0.00 43 1017.9
20260506092045 23 205 6.4 16.1 0.00 0.00 0.00 41 1018.0
20260506091544 23 230 11.3 16.1 0.00 0.00 0.00 41 1018.1
20260506091044 23 249 4.8 12.9 0.00 0.00 0.00 42 1018.0
20260506090540 23 191 4.8 12.9 0.00 0.00 0.00 41 1018.1
20260506090045 23 245 6.4 12.9 0.00 0.00 0.00 42 1018.0
20260506085538 23 181 4.8 11.3 0.00 0.00 0.00 43 1018.0
20260506085038 22 16 3.2 14.5 0.00 0.00 0.00 44 1017.9
20260506084537 23 229 8.0 14.5 0.00 0.00 0.00 43 1017.8
20260506084036 22 199 8.0 12.9 0.00 0.00 0.00 44 1017.9
20260506083534 22 207 8.0 14.5 0.00 0.00 0.00 44 1017.9
20260506083040 22 271 3.2 16.1 0.00 0.00 0.00 45 1018.0
20260506082533 22 219 9.7 16.1 0.00 0.00 0.00 45 1018.0
20260506082032 22 237 8.0 16.1 0.00 0.00 0.00 45 1018.0
20260506081531 22 226 9.7 16.1 0.00 0.00 0.00 45 1018.1
20260506081032 22 219 3.2 14.5 0.00 0.00 0.00 46 1018.1
20260506080529 22 274 4.8 11.3 0.00 0.00 0.00 47 1018.1
20260506073529 21 259 4.8 9.7 0.00 0.00 0.00 48 1017.7
20260506073023 21 279 3.2 9.7 0.00 0.00 0.00 47 1017.7
20260506072525 21 250 3.2 9.7 0.00 0.00 0.00 47 1017.7
20260506072022 21 194 4.8 9.7 0.00 0.00 0.00 47 1017.6
20260506071525 21 205 3.2 8.0 0.00 0.00 0.00 48 1017.5
20260506071020 20 161 3.2 8.0 0.00 0.00 0.00 49 1017.6
20260506070520 20 225 4.8 8.0 0.00 0.00 0.00 48 1017.6
20260506062512 19 161 0.0 3.2 0.00 0.00 0.00 53 1017.6
20260506062011 18 141 0.0 4.8 0.00 0.00 0.00 54 1017.6
20260506061510 19 140 0.0 4.8 0.00 0.00 0.00 53 1017.6
20260506061011 19 117 0.0 4.8 0.00 0.00 0.00 54 1017.6
20260506060512 18 117 0.0 4.8 0.00 0.00 0.00 55 1017.6
20260506051052 15 340 1.6 8.0 0.00 0.00 0.00 67 1017.5
20260506050551 15 44 1.6 9.7 0.00 0.00 0.00 68 1017.4
20260506045047 14 10 3.2 6.4 0.00 0.00 0.00 71 1017.2
20260506044554 13 360 3.2 6.4 0.00 0.00 0.00 72 1017.2
20260506044044 13 360 0.0 3.2 0.00 0.00 0.00 72 1017.3
20260506043542 13 59 0.0 4.8 0.00 0.00 0.00 72 1017.3
20260506043049 13 58 1.6 4.8 0.00 0.00 0.00 73 1017.3
20260506042540 13 57 1.6 8.0 0.00 0.00 0.00 73 1017.2
20260506042037 12 68 4.8 8.0 0.00 0.00 0.00 74 1017.2
20260506041539 12 96 1.6 8.0 0.00 0.00 0.00 74 1017.2
20260506041035 12 41 4.8 8.0 0.00 0.00 0.00 75 1017.1
20260506040534 12 22 4.8 8.0 0.00 0.00 0.00 75 1017.2
20260506040044 12 39 3.2 9.7 0.00 0.00 0.00 76 1017.1
20260506035534 12 37 4.8 8.0 0.00 0.00 0.00 75 1017.0
20260506035033 12 44 1.6 6.4 0.00 0.00 0.00 75 1016.9
20260506034531 12 49 3.2 6.4 0.00 0.00 0.00 75 1016.9
20260506034031 12 44 3.2 6.4 0.00 0.00 0.00 76 1016.8
20260506033530 12 53 3.2 6.4 0.00 0.00 0.00 76 1016.8
20260506033030 12 40 3.2 6.4 0.00 0.00 0.00 75 1016.7
20260506032529 12 19 3.2 6.4 0.00 0.00 0.00 75 1016.8
20260506032029 12 55 1.6 8.0 0.00 0.00 0.00 75 1016.8
20260506031529 12 65 3.2 8.0 0.00 0.00 0.00 76 1016.7
20260506031029 12 44 4.8 9.7 0.00 0.00 0.00 76 1016.7
20260506030527 12 33 4.8 9.7 0.00 0.00 0.00 76 1016.7
20260506030027 12 49 4.8 9.7 0.00 0.00 0.00 75 1016.7
20260506025526 12 32 3.2 6.4 0.00 0.00 0.00 75 1016.6
20260506025027 12 69 1.6 6.4 0.00 0.00 0.00 75 1016.6
20260506024534 12 55 3.2 8.0 0.00 0.00 0.00 76 1016.6
20260506024026 12 65 4.8 8.0 0.00 0.00 0.00 76 1016.7
20260506023529 11 33 4.8 8.0 0.00 0.00 0.00 77 1016.7
20260506023024 11 50 4.8 8.0 0.00 0.00 0.00 76 1016.7
20260506022524 11 15 4.8 8.0 0.00 0.00 0.00 76 1016.7
20260506022024 11 360 1.6 8.0 0.00 0.00 0.00 76 1016.8
20260506021541 11 53 3.2 8.0 0.00 0.00 0.00 76 1016.7
20260506021023 11 55 4.8 8.0 0.00 0.00 0.00 75 1016.8
20260506020526 11 34 4.8 9.7 0.00 0.00 0.00 76 1016.8
20260506020021 11 17 4.8 9.7 0.00 0.00 0.00 75 1016.9
20260506015521 11 47 6.4 12.9 0.00 0.00 0.00 75 1016.9
20260506015020 12 32 4.8 12.9 0.00 0.00 0.00 75 1016.9
20260506014524 12 39 4.8 8.0 0.00 0.00 0.00 75 1016.9
20260506014018 12 23 4.8 8.0 0.00 0.00 0.00 74 1016.9
20260506013518 12 48 4.8 12.9 0.00 0.00 0.00 74 1017.0
20260506013017 12 46 6.4 12.9 0.00 0.00 0.00 74 1017.0
20260506012516 12 46 6.4 11.3 0.00 0.00 0.00 75 1017.0
20260506012015 11 26 4.8 11.3 0.00 0.00 0.00 75 1016.9
20260506011522 12 29 6.4 9.7 0.00 0.00 0.00 74 1016.9
20260506011014 12 36 6.4 9.7 0.00 0.00 0.00 74 1016.9
20260506010516 12 60 3.2 9.7 0.00 0.00 0.00 74 1016.9
20260506010015 12 61 4.8 9.7 0.00 0.00 0.00 74 1016.9
20260506005512 12 44 4.8 9.7 0.00 0.00 0.00 74 1017.0
20260506005015 12 61 4.8 9.7 0.00 0.00 0.00 74 1017.0
20260506004509 12 36 6.4 9.7 0.00 0.00 0.00 72 1017.1
20260506004009 12 80 4.8 8.0 0.00 0.00 0.00 74 1017.0
20260506003508 12 34 4.8 6.4 0.00 0.00 0.00 72 1017.0
20260506003007 12 26 1.6 6.4 0.00 0.00 0.00 72 1017.0
20260506002508 13 58 0.0 6.4 0.00 0.00 0.00 71 1017.0
20260506002006 13 53 1.6 6.4 0.00 0.00 0.00 70 1017.1
20260506001506 13 74 3.2 8.0 0.00 0.00 0.00 70 1017.1
20260506001006 13 69 4.8 6.4 0.00 0.00 0.00 71 1017.1
20260506000506 13 59 4.8 6.4 0.00 0.00 0.00 71 1017.1
20260506000005 13 29 3.2 6.4 0.00 0.00 0.00 70 1017.1
20260505235504 13 61 4.8 8.0 0.00 0.00 0.00 72 1017.1
20260505235006 13 61 3.2 9.7 0.00 0.00 0.00 72 1017.2
20260505234510 12 40 8.0 9.7 0.00 0.00 0.00 73 1017.2
20260505234003 12 30 3.2 9.7 0.00 0.00 0.00 74 1017.2
20260505233501 12 30 4.8 9.7 0.00 0.00 0.00 73 1017.3
20260505233100 12 16 0.0 6.4 0.00 0.00 0.00 74 1017.2
20260505232559 13 95 0.0 4.8 0.00 0.00 0.00 72 1017.3
20260505232059 13 103 0.0 3.2 0.00 0.00 0.00 74 1017.3
20260505231559 13 102 0.0 4.8 0.00 0.00 0.00 70 1017.3
20260505231058 14 101 1.6 4.8 0.00 0.00 0.00 72 1017.4
20260505230559 14 59 1.6 3.2 0.00 0.00 0.00 72 1017.5
20260505230057 13 58 1.6 6.4 0.00 0.00 0.00 72 1017.5
20260505225559 13 57 1.6 6.4 0.00 0.00 0.00 73 1017.4
20260505225058 13 38 1.6 6.4 0.00 0.00 0.00 73 1017.6
20260505224557 13 38 1.6 6.4 0.00 0.00 0.00 74 1017.7
20260505224055 13 38 3.2 6.4 0.00 0.00 0.00 74 1017.6
20260505223555 13 36 3.2 6.4 0.00 0.00 0.00 73 1017.6
20260505223107 13 40 3.2 4.8 0.00 0.00 0.00 72 1017.6
20260505222554 13 40 0.0 4.8 0.00 0.00 0.00 73 1017.6
20260505222054 13 40 0.0 4.8 0.00 0.00 0.00 74 1017.7
20260505221554 13 25 1.6 4.8 0.00 0.00 0.00 73 1017.7
20260505221053 13 15 3.2 6.4 0.00 0.00 0.00 72 1017.7
20260505220551 13 12 3.2 6.4 0.00 0.00 0.00 72 1017.7
20260505220051 13 37 3.2 6.4 0.00 0.00 0.00 72 1017.7
20260505215553 13 71 1.6 8.0 0.00 0.00 0.00 72 1017.7
20260505215050 13 43 4.8 9.7 0.00 0.00 0.00 72 1017.6
20260505214557 13 35 6.4 9.7 0.00 0.00 0.00 72 1017.6
20260505214050 13 42 3.2 6.4 0.00 0.00 0.00 71 1017.6
20260505213547 14 56 0.0 4.8 0.00 0.00 0.00 71 1017.6
20260505213047 13 49 3.2 8.0 0.00 0.00 0.00 71 1017.6
20260505212546 14 46 3.2 8.0 0.00 0.00 0.00 70 1017.6
20260505212045 15 27 1.6 6.4 0.00 0.00 0.00 68 1017.6
20260505211550 15 80 1.6 6.4 0.00 0.00 0.00 68 1017.6
20260505211043 15 82 4.8 6.4 0.00 0.00 0.00 69 1017.6
20260505210540 15 65 3.2 8.0 0.00 0.00 0.00 70 1017.8
20260505210040 14 65 1.6 9.7 0.00 0.00 0.00 70 1017.7
20260505205539 14 48 6.4 8.0 0.00 0.00 0.00 70 1017.7
20260505205040 15 29 4.8 8.0 0.00 0.00 0.00 69 1017.6
20260505204539 15 47 3.2 8.0 0.00 0.00 0.00 69 1017.6
20260505204040 15 43 4.8 8.0 0.00 0.00 0.00 69 1017.7
20260505203539 14 43 3.2 8.0 0.00 0.00 0.00 70 1017.7
20260505203050 14 42 6.4 8.0 0.00 0.00 0.00 70 1017.7
20260505202539 15 11 4.8 8.0 0.00 0.00 0.00 69 1017.7
20260505202039 15 11 3.2 9.7 0.00 0.00 0.00 67 1017.8
20260505201538 15 30 4.8 9.7 0.00 0.00 0.00 66 1017.8
20260505201038 16 15 3.2 8.0 0.00 0.00 0.00 67 1017.8
20260505200538 16 55 4.8 9.7 0.00 0.00 0.00 68 1017.7
20260505200038 15 52 3.2 9.7 0.00 0.00 0.00 69 1017.8
20260505195539 16 53 6.4 9.7 0.00 0.00 0.00 69 1017.7
20260505195037 16 43 4.8 9.7 0.00 0.00 0.00 68 1017.8
20260505194542 16 28 4.8 8.0 0.00 0.00 0.00 67 1017.7
20260505194037 16 30 3.2 6.4 0.00 0.00 0.00 67 1017.6
20260505193537 16 30 0.0 4.8 0.00 0.00 0.00 67 1017.6
20260505193036 16 27 1.6 8.0 0.00 0.00 0.00 67 1017.6
20260505192540 16 36 4.8 9.7 0.00 0.00 0.00 67 1017.7
20260505192036 16 44 4.8 9.7 0.00 0.00 0.00 68 1017.6
20260505191543 16 21 3.2 6.4 0.00 0.00 0.00 68 1017.6
20260505191036 17 20 3.2 6.4 0.00 0.00 0.00 67 1017.7
20260505190535 17 17 3.2 6.4 0.00 0.00 0.00 66 1017.6
20260505190036 17 37 3.2 6.4 0.00 0.00 0.00 64 1017.6
20260505185539 18 10 1.6 8.0 0.00 0.00 0.00 62 1017.6
20260505185035 18 49 3.2 8.0 0.00 0.00 0.00 60 1017.4
20260505184545 18 41 3.2 4.8 0.00 0.00 0.00 57 1017.4
20260505184035 18 355 1.6 6.4 0.00 0.00 0.00 58 1017.4